| time (UTC) | temp F | wind direction | speed MPH | gust MPH | rain 1hr in | rain 24hr in | rain mn in | humidity % | barometer mb |
| 20260508054545 | 77 | 194 | 1.0 | 4.0 | 0.00 | 0.00 | 0.00 | 19 | 1009.0 |
| 20260508054024 | 77 | 213 | 0.0 | 2.0 | 0.00 | 0.00 | 0.00 | 20 | 1009.1 |
| 20260508053523 | 77 | 213 | 0.0 | 3.0 | 0.00 | 0.00 | 0.00 | 18 | 1008.9 |
| 20260508053101 | 77 | 213 | 0.0 | 3.0 | 0.00 | 0.00 | 0.00 | 18 | 1009.0 |
| 20260508052524 | 77 | 206 | 1.0 | 4.0 | 0.00 | 0.00 | 0.00 | 18 | 1008.9 |
| 20260508052024 | 77 | 205 | 2.0 | 4.0 | 0.00 | 0.00 | 0.00 | 18 | 1009.0 |
| 20260508051541 | 77 | 208 | 2.0 | 4.0 | 0.00 | 0.00 | 0.00 | 19 | 1009.0 |
| 20260508051025 | 77 | 188 | 1.0 | 2.0 | 0.00 | 0.00 | 0.00 | 19 | 1008.9 |
| 20260508050523 | 77 | 189 | 1.0 | 2.0 | 0.00 | 0.00 | 0.00 | 19 | 1008.9 |
| 20260508050041 | 78 | 189 | 1.0 | 2.0 | 0.00 | 0.00 | 0.00 | 18 | 1008.9 |
| 20260508045528 | 78 | 0 | 0.0 | 3.0 | 0.00 | 0.00 | 0.00 | 18 | 1008.8 |
| 20260508045024 | 79 | 189 | 0.0 | 3.0 | 0.00 | 0.00 | 0.00 | 18 | 1008.8 |
| 20260508044538 | 79 | 189 | 1.0 | 3.0 | 0.00 | 0.00 | 0.00 | 17 | 1008.7 |
| 20260508044027 | 79 | 188 | 1.0 | 3.0 | 0.00 | 0.00 | 0.00 | 17 | 1008.7 |
| 20260508043525 | 79 | 188 | 1.0 | 3.0 | 0.00 | 0.00 | 0.00 | 17 | 1008.6 |
| 20260508043040 | 80 | 0 | 0.0 | 0.0 | 0.00 | 0.00 | 0.00 | 16 | 1008.5 |
| 20260508042524 | 80 | 0 | 0.0 | 0.0 | 0.00 | 0.00 | 0.00 | 16 | 1008.5 |
| 20260508042023 | 81 | 0 | 0.0 | 1.0 | 0.00 | 0.00 | 0.00 | 16 | 1008.5 |
| 20260508041606 | 81 | 0 | 0.0 | 2.0 | 0.00 | 0.00 | 0.00 | 15 | 1008.3 |
| 20260508041024 | 81 | 0 | 0.0 | 3.0 | 0.00 | 0.00 | 0.00 | 15 | 1008.5 |
| 20260508040525 | 82 | 232 | 1.0 | 3.0 | 0.00 | 0.00 | 0.00 | 15 | 1008.2 |
| 20260508040051 | 82 | 248 | 1.0 | 3.0 | 0.00 | 0.00 | 0.00 | 14 | 1008.3 |
| 20260508035524 | 82 | 258 | 1.0 | 3.0 | 0.00 | 0.00 | 0.00 | 15 | 1008.2 |
| 20260508035027 | 82 | 236 | 1.0 | 3.0 | 0.00 | 0.00 | 0.00 | 14 | 1008.1 |
| 20260508034539 | 83 | 0 | 1.0 | 3.0 | 0.00 | 0.00 | 0.00 | 14 | 1007.9 |
| 20260508034025 | 83 | 240 | 1.0 | 4.0 | 0.00 | 0.00 | 0.00 | 14 | 1007.9 |
| 20260508033524 | 83 | 0 | 1.0 | 4.0 | 0.00 | 0.00 | 0.00 | 14 | 1007.9 |
| 20260508033040 | 84 | 205 | 2.0 | 4.0 | 0.00 | 0.00 | 0.00 | 14 | 1007.7 |
| 20260508032524 | 84 | 288 | 1.0 | 3.0 | 0.00 | 0.00 | 0.00 | 13 | 1007.8 |
| 20260508032024 | 85 | 267 | 0.0 | 4.0 | 0.00 | 0.00 | 0.00 | 13 | 1007.7 |
| 20260508031540 | 85 | 246 | 1.0 | 4.0 | 0.00 | 0.00 | 0.00 | 12 | 1007.8 |
| 20260508031024 | 85 | 262 | 1.0 | 4.0 | 0.00 | 0.00 | 0.00 | 12 | 1007.6 |
| 20260508030528 | 86 | 276 | 1.0 | 3.0 | 0.00 | 0.00 | 0.00 | 12 | 1007.5 |
| 20260508030038 | 86 | 260 | 0.0 | 4.0 | 0.00 | 0.00 | 0.00 | 12 | 1007.4 |
| 20260508025524 | 86 | 0 | 0.0 | 4.0 | 0.00 | 0.00 | 0.00 | 11 | 1007.4 |
| 20260508025024 | 87 | 239 | 1.0 | 4.0 | 0.00 | 0.00 | 0.00 | 11 | 1007.3 |
| 20260508024543 | 87 | 243 | 1.0 | 4.0 | 0.00 | 0.00 | 0.00 | 11 | 1007.2 |
| 20260508024024 | 87 | 0 | 1.0 | 6.0 | 0.00 | 0.00 | 0.00 | 11 | 1007.1 |
| 20260508023528 | 88 | 269 | 1.0 | 6.0 | 0.00 | 0.00 | 0.00 | 11 | 1007.2 |
| 20260508023038 | 88 | 0 | 2.0 | 6.0 | 0.00 | 0.00 | 0.00 | 11 | 1007.1 |
| 20260508022524 | 88 | 279 | 2.0 | 7.0 | 0.00 | 0.00 | 0.00 | 10 | 1007.0 |
| 20260508022024 | 89 | 298 | 2.0 | 7.0 | 0.00 | 0.00 | 0.00 | 10 | 1007.0 |
| 20260508021539 | 89 | 306 | 2.0 | 7.0 | 0.00 | 0.00 | 0.00 | 10 | 1007.0 |
| 20260508021024 | 89 | 306 | 2.0 | 6.0 | 0.00 | 0.00 | 0.00 | 10 | 1006.9 |
| 20260508020524 | 90 | 302 | 2.0 | 7.0 | 0.00 | 0.00 | 0.00 | 10 | 1006.8 |
| 20260508020045 | 90 | 267 | 2.0 | 7.0 | 0.00 | 0.00 | 0.00 | 9 | 1006.6 |
| 20260508015528 | 90 | 299 | 1.0 | 8.0 | 0.00 | 0.00 | 0.00 | 9 | 1006.7 |
| 20260508015025 | 91 | 287 | 2.0 | 9.0 | 0.00 | 0.00 | 0.00 | 9 | 1006.8 |
| 20260508014539 | 91 | 304 | 3.0 | 11.0 | 0.00 | 0.00 | 0.00 | 9 | 1006.9 |
| 20260508014025 | 91 | 253 | 4.0 | 11.0 | 0.00 | 0.00 | 0.00 | 8 | 1006.9 |
| 20260508013530 | 91 | 286 | 2.0 | 11.0 | 0.00 | 0.00 | 0.00 | 8 | 1006.9 |
| 20260508013039 | 91 | 270 | 2.0 | 9.0 | 0.00 | 0.00 | 0.00 | 8 | 1006.9 |
| 20260508012524 | 92 | 289 | 3.0 | 12.0 | 0.00 | 0.00 | 0.00 | 8 | 1006.9 |
| 20260508012024 | 92 | 282 | 5.0 | 12.0 | 0.00 | 0.00 | 0.00 | 8 | 1006.8 |
| 20260508011551 | 92 | 269 | 2.0 | 11.0 | 0.00 | 0.00 | 0.00 | 8 | 1006.8 |
| 20260508011024 | 92 | 252 | 4.0 | 11.0 | 0.00 | 0.00 | 0.00 | 8 | 1006.8 |
| 20260508010527 | 92 | 256 | 4.0 | 11.0 | 0.00 | 0.00 | 0.00 | 8 | 1006.7 |
| 20260508010043 | 92 | 317 | 3.0 | 11.0 | 0.00 | 0.00 | 0.00 | 8 | 1006.8 |
| 20260508005527 | 92 | 262 | 5.0 | 11.0 | 0.00 | 0.00 | 0.00 | 8 | 1006.6 |
| 20260508005026 | 92 | 308 | 4.0 | 11.0 | 0.00 | 0.00 | 0.00 | 8 | 1006.6 |
| 20260508004543 | 93 | 296 | 3.0 | 9.0 | 0.00 | 0.00 | 0.00 | 8 | 1006.6 |
| 20260508004027 | 92 | 260 | 3.0 | 9.0 | 0.00 | 0.00 | 0.00 | 8 | 1006.8 |
| 20260508003524 | 93 | 274 | 3.0 | 8.0 | 0.00 | 0.00 | 0.00 | 8 | 1006.7 |
| 20260508003038 | 93 | 298 | 3.0 | 9.0 | 0.00 | 0.00 | 0.00 | 7 | 1006.8 |
| 20260508002524 | 93 | 275 | 4.0 | 9.0 | 0.00 | 0.00 | 0.00 | 7 | 1006.7 |
| 20260508002024 | 93 | 302 | 3.0 | 8.0 | 0.00 | 0.00 | 0.00 | 8 | 1006.8 |
| 20260508001549 | 93 | 250 | 2.0 | 8.0 | 0.00 | 0.00 | 0.00 | 8 | 1006.7 |
| 20260508001024 | 93 | 298 | 3.0 | 8.0 | 0.00 | 0.00 | 0.00 | 7 | 1006.7 |
| 20260508000524 | 93 | 309 | 2.0 | 6.0 | 0.00 | 0.00 | 0.00 | 8 | 1006.8 |
| 20260508000043 | 93 | 243 | 1.0 | 5.0 | 0.00 | 0.00 | 0.00 | 8 | 1006.7 |
| 20260507235524 | 93 | 331 | 0.0 | 9.0 | 0.00 | 0.00 | 0.00 | 7 | 1006.8 |
| 20260507235024 | 93 | 352 | 2.0 | 10.0 | 0.00 | 0.00 | 0.00 | 7 | 1006.8 |
| 20260507234541 | 93 | 321 | 3.0 | 10.0 | 0.00 | 0.00 | 0.00 | 7 | 1006.8 |
| 20260507234024 | 93 | 336 | 5.0 | 10.0 | 0.00 | 0.00 | 0.00 | 7 | 1006.8 |
| 20260507233524 | 93 | 205 | 3.0 | 9.0 | 0.00 | 0.00 | 0.00 | 8 | 1006.8 |
| 20260507233055 | 93 | 235 | 4.0 | 10.0 | 0.00 | 0.00 | 0.00 | 8 | 1006.8 |
| 20260507232523 | 93 | 287 | 3.0 | 10.0 | 0.00 | 0.00 | 0.00 | 8 | 1006.9 |
| 20260507232026 | 93 | 292 | 2.0 | 9.0 | 0.00 | 0.00 | 0.00 | 9 | 1006.8 |
| 20260507231540 | 93 | 240 | 3.0 | 10.0 | 0.00 | 0.00 | 0.00 | 9 | 1006.8 |
| 20260507231025 | 93 | 310 | 2.0 | 10.0 | 0.00 | 0.00 | 0.00 | 9 | 1006.8 |
| 20260507230525 | 93 | 309 | 5.0 | 11.0 | 0.00 | 0.00 | 0.00 | 9 | 1006.8 |
| 20260507230040 | 94 | 269 | 4.0 | 11.0 | 0.00 | 0.00 | 0.00 | 9 | 1006.9 |
| 20260507225524 | 94 | 271 | 4.0 | 11.0 | 0.00 | 0.00 | 0.00 | 9 | 1007.0 |
| 20260507225026 | 94 | 219 | 2.0 | 11.0 | 0.00 | 0.00 | 0.00 | 9 | 1006.9 |
| 20260507224546 | 95 | 255 | 5.0 | 11.0 | 0.00 | 0.00 | 0.00 | 8 | 1006.9 |
| 20260507224024 | 95 | 291 | 3.0 | 11.0 | 0.00 | 0.00 | 0.00 | 9 | 1007.0 |
| 20260507223527 | 95 | 210 | 3.0 | 11.0 | 0.00 | 0.00 | 0.00 | 8 | 1007.1 |
| 20260507223044 | 94 | 256 | 2.0 | 8.0 | 0.00 | 0.00 | 0.00 | 8 | 1007.1 |
| 20260507222530 | 94 | 258 | 1.0 | 8.0 | 0.00 | 0.00 | 0.00 | 9 | 1007.3 |
| 20260507222024 | 93 | 311 | 0.0 | 8.0 | 0.00 | 0.00 | 0.00 | 8 | 1007.3 |
| 20260507221539 | 94 | 329 | 2.0 | 8.0 | 0.00 | 0.00 | 0.00 | 8 | 1007.4 |
| 20260507221024 | 93 | 240 | 2.0 | 11.0 | 0.00 | 0.00 | 0.00 | 9 | 1007.5 |
| 20260507220526 | 93 | 316 | 0.0 | 13.0 | 0.00 | 0.00 | 0.00 | 9 | 1007.6 |
| 20260507220039 | 92 | 352 | 5.0 | 13.0 | 0.00 | 0.00 | 0.00 | 9 | 1007.6 |
| 20260507215527 | 93 | 288 | 6.0 | 13.0 | 0.00 | 0.00 | 0.00 | 9 | 1007.6 |
| 20260507215024 | 94 | 0 | 2.0 | 9.0 | 0.00 | 0.00 | 0.00 | 9 | 1007.7 |
| 20260507214540 | 94 | 208 | 3.0 | 9.0 | 0.00 | 0.00 | 0.00 | 8 | 1007.7 |
| 20260507214026 | 94 | 274 | 4.0 | 10.0 | 0.00 | 0.00 | 0.00 | 8 | 1007.9 |
| 20260507213524 | 94 | 224 | 4.0 | 10.0 | 0.00 | 0.00 | 0.00 | 9 | 1007.8 |
| 20260507213039 | 94 | 296 | 3.0 | 11.0 | 0.00 | 0.00 | 0.00 | 9 | 1008.0 |
| 20260507212524 | 93 | 0 | 1.0 | 12.0 | 0.00 | 0.00 | 0.00 | 8 | 1008.1 |
| 20260507212027 | 93 | 237 | 4.0 | 12.0 | 0.00 | 0.00 | 0.00 | 9 | 1008.1 |
| 20260507211542 | 93 | 331 | 3.0 | 12.0 | 0.00 | 0.00 | 0.00 | 9 | 1008.1 |
| 20260507211027 | 93 | 325 | 2.0 | 9.0 | 0.00 | 0.00 | 0.00 | 9 | 1008.4 |
| 20260507210525 | 93 | 14 | 2.0 | 8.0 | 0.00 | 0.00 | 0.00 | 9 | 1008.4 |
| 20260507210048 | 94 | 18 | 2.0 | 6.0 | 0.00 | 0.00 | 0.00 | 9 | 1008.6 |
| 20260507205524 | 94 | 64 | 0.0 | 5.0 | 0.00 | 0.00 | 0.00 | 9 | 1008.6 |
| 20260507205027 | 94 | 131 | 1.0 | 7.0 | 0.00 | 0.00 | 0.00 | 8 | 1008.7 |
| 20260507204539 | 94 | 0 | 2.0 | 7.0 | 0.00 | 0.00 | 0.00 | 9 | 1008.7 |
| 20260507204025 | 94 | 166 | 1.0 | 7.0 | 0.00 | 0.00 | 0.00 | 9 | 1008.7 |
| 20260507203526 | 92 | 224 | 1.0 | 8.0 | 0.00 | 0.00 | 0.00 | 9 | 1008.8 |
| 20260507203043 | 92 | 237 | 1.0 | 8.0 | 0.00 | 0.00 | 0.00 | 9 | 1008.8 |
| 20260507202524 | 93 | 334 | 3.0 | 8.0 | 0.00 | 0.00 | 0.00 | 9 | 1008.9 |
| 20260507202024 | 93 | 331 | 2.0 | 8.0 | 0.00 | 0.00 | 0.00 | 8 | 1008.9 |
| 20260507201539 | 93 | 339 | 3.0 | 8.0 | 0.00 | 0.00 | 0.00 | 8 | 1008.9 |
| 20260507201024 | 94 | 268 | 1.0 | 6.0 | 0.00 | 0.00 | 0.00 | 9 | 1009.1 |
| 20260507200524 | 94 | 223 | 2.0 | 9.0 | 0.00 | 0.00 | 0.00 | 9 | 1009.2 |
| 20260507200046 | 94 | 213 | 3.0 | 9.0 | 0.00 | 0.00 | 0.00 | 9 | 1009.3 |
| 20260507195524 | 93 | 198 | 2.0 | 7.0 | 0.00 | 0.00 | 0.00 | 10 | 1009.3 |
| 20260507195024 | 92 | 144 | 1.0 | 6.0 | 0.00 | 0.00 | 0.00 | 10 | 1009.4 |
| 20260507194610 | 91 | 0 | 1.0 | 5.0 | 0.00 | 0.00 | 0.00 | 10 | 1009.6 |
| 20260507194023 | 91 | 42 | 2.0 | 6.0 | 0.00 | 0.00 | 0.00 | 10 | 1009.6 |
| 20260507193524 | 91 | 0 | 1.0 | 7.0 | 0.00 | 0.00 | 0.00 | 10 | 1009.7 |
| 20260507193042 | 91 | 67 | 1.0 | 7.0 | 0.00 | 0.00 | 0.00 | 11 | 1009.7 |
| 20260507192524 | 91 | 302 | 2.0 | 5.0 | 0.00 | 0.00 | 0.00 | 10 | 1009.8 |
| 20260507192026 | 91 | 213 | 1.0 | 6.0 | 0.00 | 0.00 | 0.00 | 11 | 1010.0 |
| 20260507191539 | 91 | 0 | 2.0 | 6.0 | 0.00 | 0.00 | 0.00 | 11 | 1010.0 |
| 20260507191024 | 91 | 265 | 1.0 | 5.0 | 0.00 | 0.00 | 0.00 | 11 | 1010.2 |
| 20260507190524 | 91 | 0 | 1.0 | 8.0 | 0.00 | 0.00 | 0.00 | 11 | 1010.3 |
| 20260507190045 | 91 | 148 | 2.0 | 8.0 | 0.00 | 0.00 | 0.00 | 11 | 1010.3 |
| 20260507185524 | 90 | 205 | 3.0 | 8.0 | 0.00 | 0.00 | 0.00 | 11 | 1010.3 |
| 20260507185024 | 90 | 206 | 2.0 | 6.0 | 0.00 | 0.00 | 0.00 | 12 | 1010.5 |
| 20260507184543 | 89 | 103 | 1.0 | 7.0 | 0.00 | 0.00 | 0.00 | 13 | 1010.5 |
| 20260507184023 | 88 | 120 | 2.0 | 7.0 | 0.00 | 0.00 | 0.00 | 13 | 1010.6 |
| 20260507183524 | 87 | 130 | 1.0 | 6.0 | 0.00 | 0.00 | 0.00 | 13 | 1010.6 |
| 20260507183045 | 87 | 35 | 3.0 | 8.0 | 0.00 | 0.00 | 0.00 | 14 | 1010.8 |
| 20260507182524 | 87 | 348 | 3.0 | 8.0 | 0.00 | 0.00 | 0.00 | 14 | 1010.8 |
| 20260507182024 | 87 | 34 | 2.0 | 5.0 | 0.00 | 0.00 | 0.00 | 13 | 1010.8 |
| 20260507181537 | 87 | 360 | 2.0 | 5.0 | 0.00 | 0.00 | 0.00 | 14 | 1010.9 |
| 20260507181028 | 87 | 110 | 1.0 | 6.0 | 0.00 | 0.00 | 0.00 | 14 | 1010.8 |
| 20260507180525 | 86 | 74 | 1.0 | 6.0 | 0.00 | 0.00 | 0.00 | 14 | 1010.9 |
| 20260507180040 | 87 | 46 | 2.0 | 6.0 | 0.00 | 0.00 | 0.00 | 14 | 1011.0 |
| 20260507175528 | 87 | 297 | 1.0 | 6.0 | 0.00 | 0.00 | 0.00 | 14 | 1011.0 |
| 20260507175027 | 87 | 178 | 1.0 | 6.0 | 0.00 | 0.00 | 0.00 | 14 | 1011.0 |
| 20260507174549 | 86 | 0 | 1.0 | 4.0 | 0.00 | 0.00 | 0.00 | 16 | 1011.1 |
| 20260507174024 | 86 | 344 | 0.0 | 4.0 | 0.00 | 0.00 | 0.00 | 16 | 1011.1 |
| 20260507173524 | 86 | 309 | 1.0 | 5.0 | 0.00 | 0.00 | 0.00 | 16 | 1011.2 |
| 20260507173113 | 86 | 225 | 1.0 | 6.0 | 0.00 | 0.00 | 0.00 | 16 | 1011.3 |
| 20260507172524 | 85 | 207 | 2.0 | 6.0 | 0.00 | 0.00 | 0.00 | 17 | 1011.3 |
| 20260507172024 | 85 | 143 | 1.0 | 4.0 | 0.00 | 0.00 | 0.00 | 18 | 1011.2 |
| 20260507171547 | 85 | 203 | 1.0 | 6.0 | 0.00 | 0.00 | 0.00 | 18 | 1011.3 |
| 20260507171025 | 84 | 298 | 0.0 | 7.0 | 0.00 | 0.00 | 0.00 | 19 | 1011.3 |
| 20260507170525 | 84 | 360 | 1.0 | 7.0 | 0.00 | 0.00 | 0.00 | 19 | 1011.4 |
| 20260507170041 | 84 | 295 | 1.0 | 5.0 | 0.00 | 0.00 | 0.00 | 19 | 1011.5 |
| 20260507165524 | 84 | 108 | 0.0 | 4.0 | 0.00 | 0.00 | 0.00 | 19 | 1011.4 |
| 20260507165024 | 83 | 0 | 1.0 | 4.0 | 0.00 | 0.00 | 0.00 | 19 | 1011.6 |
| 20260507164548 | 83 | 156 | 0.0 | 3.0 | 0.00 | 0.00 | 0.00 | 21 | 1011.5 |
| 20260507164025 | 82 | 317 | 0.0 | 4.0 | 0.00 | 0.00 | 0.00 | 21 | 1011.6 |
| 20260507163524 | 82 | 147 | 1.0 | 5.0 | 0.00 | 0.00 | 0.00 | 23 | 1011.6 |
| 20260507163038 | 81 | 0 | 0.0 | 5.0 | 0.00 | 0.00 | 0.00 | 24 | 1011.6 |
| 20260507162524 | 80 | 204 | 1.0 | 5.0 | 0.00 | 0.00 | 0.00 | 24 | 1011.7 |
| 20260507162025 | 80 | 188 | 0.0 | 3.0 | 0.00 | 0.00 | 0.00 | 25 | 1011.7 |
| 20260507161553 | 80 | 0 | 0.0 | 3.0 | 0.00 | 0.00 | 0.00 | 25 | 1011.9 |
| 20260507161024 | 79 | 0 | 0.0 | 2.0 | 0.00 | 0.00 | 0.00 | 26 | 1012.0 |
| 20260507160524 | 79 | 278 | 0.0 | 2.0 | 0.00 | 0.00 | 0.00 | 26 | 1012.0 |
| 20260507160041 | 78 | 0 | 0.0 | 2.0 | 0.00 | 0.00 | 0.00 | 27 | 1012.0 |
| 20260507155525 | 78 | 197 | 0.0 | 3.0 | 0.00 | 0.00 | 0.00 | 27 | 1012.0 |
| 20260507155025 | 77 | 168 | 0.0 | 4.0 | 0.00 | 0.00 | 0.00 | 27 | 1012.0 |
| 20260507154542 | 77 | 0 | 1.0 | 4.0 | 0.00 | 0.00 | 0.00 | 29 | 1012.0 |
| 20260507154027 | 76 | 137 | 0.0 | 4.0 | 0.00 | 0.00 | 0.00 | 30 | 1012.1 |
| 20260507153525 | 76 | 0 | 0.0 | 4.0 | 0.00 | 0.00 | 0.00 | 30 | 1012.0 |
| 20260507153041 | 75 | 74 | 1.0 | 4.0 | 0.00 | 0.00 | 0.00 | 30 | 1012.1 |
| 20260507152526 | 74 | 169 | 0.0 | 4.0 | 0.00 | 0.00 | 0.00 | 31 | 1012.1 |
| 20260507152025 | 73 | 152 | 1.0 | 6.0 | 0.00 | 0.00 | 0.00 | 31 | 1012.1 |
| 20260507151539 | 73 | 139 | 1.0 | 6.0 | 0.00 | 0.00 | 0.00 | 32 | 1012.1 |
| 20260507151024 | 72 | 0 | 1.0 | 5.0 | 0.00 | 0.00 | 0.00 | 32 | 1012.2 |
| 20260507150524 | 72 | 171 | 0.0 | 5.0 | 0.00 | 0.00 | 0.00 | 33 | 1012.2 |
| 20260507150047 | 71 | 105 | 0.0 | 6.0 | 0.00 | 0.00 | 0.00 | 34 | 1012.1 |
| 20260507145523 | 70 | 174 | 2.0 | 6.0 | 0.00 | 0.00 | 0.00 | 34 | 1012.1 |
| 20260507145024 | 70 | 175 | 1.0 | 8.0 | 0.00 | 0.00 | 0.00 | 35 | 1012.2 |
| 20260507144546 | 69 | 141 | 2.0 | 8.0 | 0.00 | 0.00 | 0.00 | 35 | 1012.1 |
| 20260507144024 | 69 | 148 | 2.0 | 7.0 | 0.00 | 0.00 | 0.00 | 35 | 1012.2 |
| 20260507143525 | 69 | 148 | 2.0 | 7.0 | 0.00 | 0.00 | 0.00 | 36 | 1012.2 |
| 20260507143039 | 68 | 156 | 1.0 | 6.0 | 0.00 | 0.00 | 0.00 | 38 | 1012.2 |
| 20260507142524 | 68 | 80 | 1.0 | 6.0 | 0.00 | 0.00 | 0.00 | 39 | 1012.2 |
| 20260507142024 | 67 | 140 | 1.0 | 5.0 | 0.00 | 0.00 | 0.00 | 40 | 1012.2 |
| 20260507141536 | 67 | 112 | 2.0 | 5.0 | 0.00 | 0.00 | 0.00 | 40 | 1012.2 |
| 20260507141024 | 67 | 88 | 1.0 | 4.0 | 0.00 | 0.00 | 0.00 | 42 | 1012.2 |
| 20260507140524 | 67 | 87 | 1.0 | 3.0 | 0.00 | 0.00 | 0.00 | 44 | 1012.2 |
| 20260507140043 | 66 | 0 | 0.0 | 3.0 | 0.00 | 0.00 | 0.00 | 45 | 1012.1 |
| 20260507135522 | 66 | 90 | 0.0 | 3.0 | 0.00 | 0.00 | 0.00 | 46 | 1012.1 |
| 20260507135023 | 65 | 118 | 0.0 | 3.0 | 0.00 | 0.00 | 0.00 | 46 | 1012.0 |
| 20260507134540 | 65 | 153 | 0.0 | 3.0 | 0.00 | 0.00 | 0.00 | 48 | 1011.8 |
| 20260507134024 | 64 | 0 | 0.0 | 3.0 | 0.00 | 0.00 | 0.00 | 49 | 1011.8 |
| 20260507133525 | 63 | 0 | 0.0 | 3.0 | 0.00 | 0.00 | 0.00 | 49 | 1011.6 |
| 20260507133037 | 63 | 136 | 0.0 | 2.0 | 0.00 | 0.00 | 0.00 | 51 | 1011.6 |
| 20260507132527 | 62 | 0 | 0.0 | 1.0 | 0.00 | 0.00 | 0.00 | 52 | 1011.5 |
| 20260507132024 | 61 | 0 | 0.0 | 1.0 | 0.00 | 0.00 | 0.00 | 53 | 1011.4 |
| 20260507131540 | 61 | 0 | 0.0 | 1.0 | 0.00 | 0.00 | 0.00 | 53 | 1011.3 |
| 20260507131025 | 60 | 0 | 0.0 | 1.0 | 0.00 | 0.00 | 0.00 | 53 | 1011.3 |
| 20260507130526 | 60 | 0 | 0.0 | 3.0 | 0.00 | 0.00 | 0.00 | 53 | 1011.3 |
| 20260507130036 | 60 | 147 | 1.0 | 3.0 | 0.00 | 0.00 | 0.00 | 53 | 1011.3 |
| 20260507125524 | 60 | 147 | 1.0 | 2.0 | 0.00 | 0.00 | 0.00 | 54 | 1011.3 |
| 20260507125024 | 60 | 0 | 1.0 | 2.0 | 0.00 | 0.00 | 0.00 | 53 | 1011.2 |
| 20260507124535 | 60 | 0 | 0.0 | 2.0 | 0.00 | 0.00 | 0.00 | 53 | 1011.2 |
| 20260507124024 | 60 | 147 | 1.0 | 2.0 | 0.00 | 0.00 | 0.00 | 53 | 1011.2 |
| 20260507123524 | 60 | 147 | 0.0 | 5.0 | 0.00 | 0.00 | 0.00 | 53 | 1011.2 |
| 20260507123042 | 60 | 147 | 1.0 | 6.0 | 0.00 | 0.00 | 0.00 | 53 | 1011.2 |
| 20260507122523 | 60 | 150 | 2.0 | 6.0 | 0.00 | 0.00 | 0.00 | 53 | 1011.3 |
| 20260507122024 | 60 | 153 | 3.0 | 6.0 | 0.00 | 0.00 | 0.00 | 53 | 1011.3 |
| 20260507121542 | 60 | 106 | 0.0 | 2.0 | 0.00 | 0.00 | 0.00 | 53 | 1011.1 |
| 20260507121024 | 61 | 0 | 0.0 | 2.0 | 0.00 | 0.00 | 0.00 | 53 | 1011.1 |
| 20260507120524 | 61 | 0 | 0.0 | 3.0 | 0.00 | 0.00 | 0.00 | 52 | 1011.1 |
| 20260507120043 | 61 | 106 | 1.0 | 3.0 | 0.00 | 0.00 | 0.00 | 51 | 1011.1 |
| 20260507115524 | 61 | 0 | 0.0 | 0.0 | 0.00 | 0.00 | 0.00 | 53 | 1011.2 |
| 20260507115021 | 61 | 0 | 0.0 | 2.0 | 0.00 | 0.00 | 0.00 | 53 | 1011.1 |
| 20260507114544 | 61 | 0 | 0.0 | 2.0 | 0.00 | 0.00 | 0.00 | 53 | 1011.1 |
| 20260507114025 | 61 | 0 | 1.0 | 2.0 | 0.00 | 0.00 | 0.00 | 53 | 1011.1 |
| 20260507113524 | 61 | 106 | 0.0 | 3.0 | 0.00 | 0.00 | 0.00 | 52 | 1011.1 |
| 20260507113047 | 61 | 0 | 0.0 | 3.0 | 0.00 | 0.00 | 0.00 | 53 | 1011.2 |
| 20260507112525 | 61 | 106 | 1.0 | 2.0 | 0.00 | 0.00 | 0.00 | 54 | 1011.2 |
| 20260507112025 | 61 | 106 | 1.0 | 2.0 | 0.00 | 0.00 | 0.00 | 55 | 1011.2 |
| 20260507111539 | 61 | 106 | 0.0 | 2.0 | 0.00 | 0.00 | 0.00 | 54 | 1011.2 |
| 20260507111024 | 61 | 0 | 0.0 | 0.0 | 0.00 | 0.00 | 0.00 | 54 | 1011.2 |
| 20260507110526 | 61 | 0 | 0.0 | 0.0 | 0.00 | 0.00 | 0.00 | 55 | 1011.2 |
| 20260507110039 | 61 | 0 | 0.0 | 0.0 | 0.00 | 0.00 | 0.00 | 54 | 1011.2 |
| 20260507105524 | 61 | 0 | 0.0 | 0.0 | 0.00 | 0.00 | 0.00 | 54 | 1011.2 |
| 20260507105024 | 61 | 0 | 0.0 | 0.0 | 0.00 | 0.00 | 0.00 | 53 | 1011.3 |
| 20260507104540 | 61 | 0 | 0.0 | 0.0 | 0.00 | 0.00 | 0.00 | 53 | 1011.3 |
| 20260507104025 | 62 | 0 | 0.0 | 0.0 | 0.00 | 0.00 | 0.00 | 53 | 1011.4 |
| 20260507103524 | 62 | 0 | 0.0 | 2.0 | 0.00 | 0.00 | 0.00 | 54 | 1011.4 |
| 20260507103036 | 62 | 0 | 0.0 | 2.0 | 0.00 | 0.00 | 0.00 | 54 | 1011.4 |
| 20260507102524 | 62 | 0 | 0.0 | 2.0 | 0.00 | 0.00 | 0.00 | 53 | 1011.5 |
| 20260507102024 | 62 | 0 | 0.0 | 1.0 | 0.00 | 0.00 | 0.00 | 51 | 1011.4 |
| 20260507101542 | 62 | 0 | 0.0 | 1.0 | 0.00 | 0.00 | 0.00 | 51 | 1011.4 |
| 20260507101024 | 62 | 0 | 0.0 | 0.0 | 0.00 | 0.00 | 0.00 | 50 | 1011.6 |
| 20260507100524 | 63 | 0 | 0.0 | 1.0 | 0.00 | 0.00 | 0.00 | 49 | 1011.5 |
| 20260507100042 | 63 | 0 | 0.0 | 1.0 | 0.00 | 0.00 | 0.00 | 48 | 1011.7 |
| 20260507095525 | 62 | 0 | 0.0 | 1.0 | 0.00 | 0.00 | 0.00 | 47 | 1011.7 |
| 20260507095024 | 62 | 106 | 0.0 | 1.0 | 0.00 | 0.00 | 0.00 | 48 | 1011.7 |
| 20260507094539 | 62 | 0 | 0.0 | 1.0 | 0.00 | 0.00 | 0.00 | 50 | 1011.8 |
| 20260507094024 | 62 | 0 | 0.0 | 1.0 | 0.00 | 0.00 | 0.00 | 50 | 1011.8 |
| 20260507093527 | 63 | 0 | 0.0 | 1.0 | 0.00 | 0.00 | 0.00 | 48 | 1011.8 |
| 20260507093039 | 63 | 0 | 0.0 | 1.0 | 0.00 | 0.00 | 0.00 | 48 | 1011.9 |
| 20260507092524 | 63 | 0 | 0.0 | 1.0 | 0.00 | 0.00 | 0.00 | 48 | 1011.9 |
| 20260507092027 | 63 | 0 | 0.0 | 1.0 | 0.00 | 0.00 | 0.00 | 47 | 1011.9 |
| 20260507091546 | 63 | 0 | 0.0 | 3.0 | 0.00 | 0.00 | 0.00 | 47 | 1012.0 |
| 20260507091025 | 63 | 0 | 0.0 | 3.0 | 0.00 | 0.00 | 0.00 | 47 | 1012.0 |
| 20260507090523 | 64 | 106 | 1.0 | 3.0 | 0.00 | 0.00 | 0.00 | 46 | 1012.0 |
| 20260507090045 | 64 | 0 | 0.0 | 2.0 | 0.00 | 0.00 | 0.00 | 45 | 1012.1 |
| 20260507085524 | 64 | 0 | 0.0 | 2.0 | 0.00 | 0.00 | 0.00 | 44 | 1012.1 |
| 20260507085023 | 65 | 0 | 0.0 | 2.0 | 0.00 | 0.00 | 0.00 | 43 | 1012.2 |
| 20260507084539 | 65 | 0 | 0.0 | 2.0 | 0.00 | 0.00 | 0.00 | 43 | 1012.2 |
| 20260507084024 | 65 | 22 | 0.0 | 2.0 | 0.00 | 0.00 | 0.00 | 42 | 1012.2 |
| 20260507083524 | 65 | 22 | 0.0 | 3.0 | 0.00 | 0.00 | 0.00 | 42 | 1012.2 |
| 20260507083039 | 66 | 22 | 0.0 | 3.0 | 0.00 | 0.00 | 0.00 | 42 | 1012.2 |
| 20260507082524 | 66 | 22 | 2.0 | 3.0 | 0.00 | 0.00 | 0.00 | 41 | 1012.3 |
| 20260507082024 | 66 | 5 | 0.0 | 2.0 | 0.00 | 0.00 | 0.00 | 41 | 1012.3 |
| 20260507081544 | 66 | 0 | 0.0 | 1.0 | 0.00 | 0.00 | 0.00 | 41 | 1012.3 |
| 20260507081026 | 66 | 0 | 0.0 | 1.0 | 0.00 | 0.00 | 0.00 | 40 | 1012.3 |
| 20260507080524 | 67 | 0 | 0.0 | 2.0 | 0.00 | 0.00 | 0.00 | 40 | 1012.3 |
| 20260507080043 | 67 | 0 | 0.0 | 2.0 | 0.00 | 0.00 | 0.00 | 40 | 1012.4 |
| 20260507075525 | 67 | 5 | 1.0 | 3.0 | 0.00 | 0.00 | 0.00 | 40 | 1012.4 |
| 20260507075024 | 66 | 0 | 0.0 | 3.0 | 0.00 | 0.00 | 0.00 | 41 | 1012.4 |
| 20260507074541 | 66 | 5 | 1.0 | 3.0 | 0.00 | 0.00 | 0.00 | 42 | 1012.4 |
| 20260507074026 | 66 | 5 | 0.0 | 3.0 | 0.00 | 0.00 | 0.00 | 42 | 1012.5 |
| 20260507073525 | 67 | 0 | 0.0 | 0.0 | 0.00 | 0.00 | 0.00 | 42 | 1012.4 |
| 20260507073046 | 67 | 0 | 0.0 | 0.0 | 0.00 | 0.00 | 0.00 | 42 | 1012.4 |
| 20260507072525 | 67 | 0 | 0.0 | 0.0 | 0.00 | 0.00 | 0.00 | 42 | 1012.4 |
| 20260507072027 | 67 | 0 | 0.0 | 0.0 | 0.00 | 0.00 | 0.00 | 43 | 1012.4 |
| 20260507071539 | 67 | 0 | 0.0 | 0.0 | 0.00 | 0.00 | 0.00 | 42 | 1012.5 |
| 20260507071024 | 67 | 0 | 0.0 | 0.0 | 0.00 | 0.00 | 0.00 | 43 | 1012.5 |
| 20260507070525 | 67 | 0 | 0.0 | 0.0 | 0.00 | 0.00 | 0.00 | 42 | 1012.5 |
| 20260507070042 | 67 | 0 | 0.0 | 0.0 | 0.00 | 0.00 | 0.00 | 42 | 1012.5 |
| 20260507065525 | 67 | 0 | 0.0 | 0.0 | 0.00 | 0.00 | 0.00 | 42 | 1012.4 |
| 20260507065024 | 67 | 0 | 0.0 | 0.0 | 0.00 | 0.00 | 0.00 | 41 | 1012.4 |
| 20260507064552 | 68 | 0 | 0.0 | 0.0 | 0.00 | 0.00 | 0.00 | 40 | 1012.4 |
| 20260507064024 | 68 | 0 | 0.0 | 0.0 | 0.00 | 0.00 | 0.00 | 40 | 1012.4 |
| 20260507063524 | 68 | 0 | 0.0 | 0.0 | 0.00 | 0.00 | 0.00 | 40 | 1012.3 |
| 20260507063047 | 68 | 0 | 0.0 | 0.0 | 0.00 | 0.00 | 0.00 | 40 | 1012.3 |
| 20260507062528 | 68 | 0 | 0.0 | 0.0 | 0.00 | 0.00 | 0.00 | 40 | 1012.2 |
| 20260507062024 | 68 | 0 | 0.0 | 0.0 | 0.00 | 0.00 | 0.00 | 39 | 1012.3 |
| 20260507061541 | 69 | 0 | 0.0 | 0.0 | 0.00 | 0.00 | 0.00 | 40 | 1012.3 |
| 20260507061024 | 69 | 0 | 0.0 | 0.0 | 0.00 | 0.00 | 0.00 | 40 | 1012.3 |
| 20260507060524 | 69 | 0 | 0.0 | 0.0 | 0.00 | 0.00 | 0.00 | 39 | 1012.3 |
| 20260507060039 | 69 | 0 | 0.0 | 0.0 | 0.00 | 0.00 | 0.00 | 38 | 1012.3 |
| 20260507055525 | 69 | 0 | 0.0 | 0.0 | 0.00 | 0.00 | 0.00 | 38 | 1012.3 |
| 20260507055024 | 70 | 0 | 0.0 | 0.0 | 0.00 | 0.00 | 0.00 | 38 | 1012.3 |